Weather in Bezheck

Russia / Tver Oblast     57°47′08″N   36°41′37″E
temp.,
°C
wind,
m/s
gust,
m/s
humid.,
%
clouds,
%
prec.,
mm/h
press.,
hPa
HPBL,
m
8 may, sat
sat800:00+5sse3888100 0.0 1010129
03:00+5se4118598 0.0 1009206
06:00+6sse51481100 0.0 1008628
09:00+7sse71491100 1.0 10071069
12:00+8sse61192100 0.1 1006815
15:00+8sse3895100 0.4 1005584
18:00+7e1297100 1.6 1004181
21:00+6nnw71392100 5.0 1004624
9 may, sun
sun900:00+5nnw71290100 0.8 1004801
03:00+4nw71290100 1.0 1006827
06:00+3nw71288100 0.1 10081003
09:00+5nw71180100 0.1 10101082
12:00+9nw8114899 0.0 10131867
15:00+11nw8104499 0.0 10152369
18:00+11nw594929 0.0 10171861
21:00+5wnw48641 0.0 1021135
10 may, mon
mon1000:00+3nw34700 0.0 102453
03:00+2w226992 0.0 102613
06:00+3ssw23685 0.0 102772
09:00+10ssw46555 0.0 1028545
12:00+13sw684695 0.0 10271694
15:00+12sw496165 0.0 1027791
18:00+14ssw47637 0.0 1027872
21:00+9ssw34825 0.0 102858
11 may, tue
tue1100:00+7ssw378674 0.0 102997
03:00+7ssw3489100 0.0 103052
06:00+9ssw238699 0.0 103078
09:00+14ssw356889 0.0 1031429
12:00+17ssw3455100 0.0 10311072
15:00+19s3452100 0.0 10301367
18:00+18s2362100 0.0 1029312
21:00+13se3480100 0.0 102948
12 may, wed
wed1200:00+11sse348554 0.0 103061
03:00+10ese22875 0.0 102916
06:00+10ese36867 0.0 1030141
09:00+15se46625 0.0 1029515
12:00+18ese565296 0.0 10281047
15:00+20se45485 0.0 10271174
18:00+19se36610 0.0 1027718
21:00+14ese338311 0.0 102741